Theta_e
319 321 323 322 320 317 315 318 319 319 319 318 317 319 323 326 326 325 324 324 324 325 325 324 324 325 325 325 326 326 327 327 327 328 328 327 327 327 327 327 325 324 324 324 323 322 322 321 322 323 322 321 321 321 320 319 319 319 318 318 318 317 317
316 319 322 322 321 317 315 318 320 318 317 317 316 315 316 320 324 324 323 322 323 324 325 325 324 324 324 324 326 326 326 326 327 328 328 327 326 326 325 326 325 324 324 323 323 322 321 322 322 321 320 320 320 321 321 319 319 319 318 316 315 315 314
315 319 323 323 321 316 315 321 322 321 319 318 319 318 316 317 317 319 321 322 323 324 325 325 324 324 323 324 325 326 326 326 326 327 327 326 326 325 325 325 324 323 324 323 322 322 321 321 321 320 320 318 318 320 321 319 319 318 316 314 313 312 313
314 316 319 320 317 312 314 319 322 323 321 320 322 322 321 320 317 316 318 320 322 323 323 323 323 324 324 325 326 326 326 325 326 326 326 326 326 325 325 325 324 322 324 323 322 322 321 321 321 318 317 316 315 318 320 319 318 316 314 313 311 309 310
312 312 312 312 310 310 313 315 318 321 320 321 324 324 324 322 319 319 320 321 322 322 322 322 322 323 324 324 325 325 326 325 324 324 325 325 325 325 325 325 324 322 324 324 322 322 321 321 320 316 314 315 315 316 317 317 316 315 313 312 310 309 308
311 309 307 308 308 310 312 314 315 317 317 320 323 324 324 321 317 320 322 323 324 323 323 323 322 321 322 323 324 324 324 324 322 322 323 324 325 325 324 324 323 323 324 324 323 322 320 318 316 313 313 315 315 316 316 315 315 314 313 311 309 309 308
310 309 308 309 310 311 312 314 315 317 318 319 320 319 320 320 317 319 321 321 323 324 324 323 321 321 322 323 324 324 322 322 321 321 323 324 324 324 324 323 323 324 324 324 323 321 319 314 311 311 314 316 316 315 316 315 314 312 310 310 309 309 308
311 311 312 313 313 313 314 316 319 320 319 320 320 317 317 320 320 320 320 319 320 322 322 320 319 321 322 322 322 321 319 319 320 322 323 324 324 324 324 322 322 322 322 323 322 322 320 314 311 310 312 315 317 316 316 315 313 310 309 309 309 308 308
313 313 315 316 314 314 316 318 320 321 320 320 321 319 317 319 320 319 318 318 320 320 320 320 320 322 321 319 319 319 319 320 321 323 323 322 322 322 321 318 316 317 318 321 322 322 321 316 312 311 311 312 314 315 315 314 311 309 309 308 308 308 308
314 315 316 315 314 314 318 320 320 321 321 321 321 320 318 317 319 318 316 318 320 320 320 321 322 322 321 320 320 320 321 322 323 323 322 321 321 321 319 316 314 315 317 319 321 321 321 317 312 311 311 311 310 311 312 311 309 308 309 308 308 309 308
315 316 316 314 314 315 318 321 322 321 321 321 321 319 316 316 317 317 317 319 320 320 320 321 321 321 321 321 322 322 322 323 322 321 319 318 319 318 317 316 315 315 316 318 319 320 320 317 314 312 311 311 311 310 310 309 308 308 309 308 308 309 309
317 317 317 315 314 315 318 321 321 320 320 319 317 314 311 312 312 314 318 321 321 321 321 321 321 321 321 321 323 324 323 322 321 318 316 315 315 315 316 316 314 315 315 316 316 318 319 317 315 313 312 311 311 311 310 309 309 309 309 308 308 309 309
318 319 318 315 314 316 317 319 320 319 317 313 311 309 308 309 310 312 318 321 320 321 322 321 321 320 318 319 321 323 323 322 320 317 315 315 314 314 314 315 314 315 315 315 315 315 317 316 315 315 314 311 311 310 309 310 311 310 309 309 309 310 309
320 321 319 315 315 316 315 317 317 316 312 308 307 307 307 307 307 309 315 318 318 320 320 321 321 319 317 315 315 317 319 320 319 317 314 313 312 311 312 313 314 314 315 314 314 315 315 315 314 315 315 313 312 310 309 310 312 311 310 311 310 309 309
321 321 319 316 314 313 313 313 313 312 309 307 307 306 306 306 305 307 313 315 315 316 317 317 318 317 315 311 309 309 311 313 313 312 310 310 309 308 309 311 313 314 315 314 314 314 314 314 314 314 315 314 312 310 311 313 314 313 312 312 310 308 309
322 321 319 315 311 310 312 313 311 309 307 307 308 308 307 307 306 306 309 311 311 312 312 312 312 312 310 307 305 306 307 308 309 309 310 310 309 308 307 309 311 313 314 314 314 314 314 314 314 314 315 315 313 312 313 315 315 314 314 313 310 309 310
322 322 319 314 309 310 315 315 310 307 306 307 309 310 309 309 309 309 308 307 308 308 308 308 307 307 306 306 306 307 308 309 310 310 311 310 310 310 309 308 309 311 312 312 313 313 314 314 314 314 314 315 315 314 315 315 314 314 314 313 312 310 310
322 321 318 311 308 311 318 317 309 306 306 307 310 312 311 311 312 312 310 307 306 307 307 306 307 308 308 309 309 310 311 312 311 311 311 311 311 312 311 310 310 310 311 312 313 313 314 314 315 315 315 315 315 314 315 315 314 314 313 313 312 312 311
322 321 315 309 308 313 318 316 308 305 306 309 312 313 312 312 312 313 312 310 308 308 307 307 309 311 311 311 311 312 313 313 312 311 311 311 311 311 311 311 311 311 312 312 313 313 314 315 315 315 315 315 315 314 314 314 314 314 314 313 313 313 312
321 319 314 309 310 316 318 313 305 305 308 311 314 314 313 313 314 314 314 313 312 311 309 308 310 311 312 312 313 312 313 313 312 312 311 310 311 310 310 310 311 311 311 311 313 313 314 314 315 315 315 315 314 314 314 314 314 314 314 314 314 313 313
321 320 318 316 317 321 319 311 305 308 312 313 315 315 314 314 314 315 315 314 314 314 313 311 310 310 311 312 313 313 313 312 312 311 310 310 310 310 311 311 310 310 310 310 312 313 314 314 314 314 314 315 314 314 314 314 314 315 315 315 315 314 314
321 321 322 321 321 322 321 316 312 313 315 315 316 316 315 315 314 314 315 315 315 315 315 313 311 310 310 310 311 313 313 312 312 311 310 310 310 311 311 311 311 311 311 312 312 312 312 312 313 314 314 315 315 314 314 314 314 315 315 315 315 315 314
321 322 323 323 322 322 322 320 319 317 317 317 317 317 317 316 315 314 314 315 315 315 314 313 313 312 310 309 309 310 311 311 311 311 311 310 310 311 310 310 311 312 313 314 314 314 314 313 314 315 315 315 315 315 315 315 315 314 314 314 315 315 314
322 322 323 323 323 322 322 322 322 321 319 319 319 319 318 317 317 316 315 315 315 314 314 314 313 313 313 312 311 310 310 310 310 311 311 311 311 311 310 310 311 312 314 315 315 315 315 315 316 316 315 315 315 315 315 315 315 315 314 314 315 315 315
323 322 322 322 323 323 322 322 322 322 321 320 320 320 318 317 317 317 316 316 315 315 314 315 314 314 314 314 313 313 312 312 311 311 311 311 311 311 311 312 313 314 315 315 316 316 316 316 316 316 317 316 316 316 316 316 316 316 315 315 315 315 315
322 323 322 322 322 323 323 322 322 322 321 320 320 320 319 318 318 318 318 318 317 316 316 316 316 316 315 314 314 314 314 314 314 313 312 312 312 312 313 314 314 315 316 316 317 317 316 316 316 316 316 316 316 316 316 316 316 315 315 315 315 315 315
321 321 321 322 322 322 322 322 322 322 321 321 321 321 320 320 320 320 319 319 319 319 318 318 318 317 317 316 315 314 315 315 315 315 315 315 314 314 314 315 316 317 317 318 317 317 317 317 317 317 316 316 315 315 315 315 315 315 315 315 314 314 314
317 318 319 320 321 320 319 319 320 320 320 320 320 320 320 320 320 320 320 320 320 319 319 319 318 319 318 318 317 316 315 315 315 315 316 316 316 316 316 316 317 317 318 318 318 318 318 317 317 317 317 316 315 315 315 315 314 314 314 314 314 314 315
314 315 316 317 317 317 317 318 319 319 319 319 319 319 319 319 319 320 320 320 320 320 320 319 319 319 319 319 319 318 317 316 316 316 316 317 317 317 317 318 318 317 317 318 318 318 317 316 316 317 316 316 315 315 315 314 313 312 311 312 314 315 314
312 312 313 314 314 315 315 316 316 317 317 318 318 317 317 317 317 318 318 318 319 319 319 319 319 319 319 319 320 320 319 318 317 316 317 318 318 318 318 318 319 318 318 318 317 317 316 316 315 316 315 314 313 313 313 312 311 309 307 308 311 312 311
309 309 309 310 311 311 312 312 313 313 314 315 315 315 315 315 316 316 316 315 316 316 316 317 317 318 318 319 319 320 320 320 319 318 318 318 319 318 318 318 319 318 318 318 317 316 316 315 315 314 313 312 312 311 311 311 310 307 306 307 308 309 310
306 306 306 306 306 306 307 308 308 309 309 310 311 312 312 313 313 314 314 314 314 314 314 315 316 317 317 318 318 319 319 319 319 319 319 319 319 318 318 318 318 318 317 317 317 317 317 316 314 313 312 312 313 312 311 311 310 307 305 306 306 307 309
303 304 304 304 304 303 303 304 304 304 305 306 306 308 309 309 310 310 311 312 312 313 313 313 314 315 315 316 317 317 317 317 317 317 317 317 317 317 317 317 317 317 317 317 317 317 317 316 314 313 313 313 313 312 311 311 310 306 305 306 306 306 306
301 301 302 302 302 302 302 302 302 302 303 303 304 304 304 305 306 306 307 308 309 310 311 311 311 312 312 312 313 314 314 315 315 315 315 315 314 315 315 316 317 317 317 316 317 317 316 316 315 314 313 313 312 312 312 311 308 305 305 305 304 304 304
299 299 299 299 300 300 300 300 301 301 301 301 301 301 301 301 301 302 303 303 304 305 306 307 308 309 310 310 311 311 311 311 311 312 312 311 312 313 314 315 316 317 316 316 317 316 316 316 316 315 314 313 312 312 311 308 306 305 305 305 304 305 305
298 298 298 298 298 298 299 299 299 299 299 299 299 299 299 299 299 299 300 300 301 301 302 303 304 305 307 308 309 309 310 310 311 311 310 310 310 312 313 314 315 315 316 316 316 316 316 315 315 315 315 314 312 312 309 307 307 307 306 305 306 306 306
298 298 298 298 298 298 298 298 298 298 298 299 298 298 298 298 298 298 298 299 299 299 300 301 302 304 306 307 308 308 309 310 311 312 311 311 311 312 313 313 314 315 316 316 316 315 314 314 314 315 314 312 311 311 309 308 308 308 307 307 307 307 306
Wind_Speed
13 13 11 10 9 8 9 10 10 10 9 8 8 9 10 10 10 10 10 9 8 7 8 9 9 10 11 11 11 11 10 10 11 11 12 13 15 14 14 13 8 6 15 18 15 17 19 18 15 12 10 8 7 5 3 4 6 7 7 7 7 7 7
12 11 10 9 7 6 7 8 9 9 9 9 8 8 9 10 11 11 11 11 10 9 9 9 9 10 10 11 11 10 9 10 11 12 12 12 13 14 14 14 10 10 17 16 13 15 18 21 20 16 13 10 9 9 5 4 5 5 6 8 8 7 6
13 12 11 9 7 5 5 7 6 6 7 8 8 7 6 7 9 11 11 10 10 10 10 8 9 9 10 10 10 9 8 9 11 13 12 10 12 14 14 15 12 14 19 17 15 17 17 19 20 18 15 11 11 12 7 3 3 3 6 8 8 7 4
13 12 11 10 8 7 6 6 5 4 4 6 7 6 5 4 5 8 9 9 9 10 9 8 7 8 9 9 10 9 9 9 10 12 12 10 11 14 15 15 12 13 18 19 17 18 17 17 18 18 16 14 13 12 9 5 3 4 5 6 9 8 4
11 10 10 10 10 8 7 6 4 4 3 5 7 6 5 4 5 7 8 8 9 10 8 7 6 7 9 9 9 9 9 9 9 10 11 10 10 12 14 13 11 12 16 19 18 17 15 14 16 19 20 18 15 12 10 8 6 4 3 5 8 9 5
11 11 11 11 10 9 7 6 5 5 4 5 6 7 6 4 5 8 8 8 9 10 9 6 4 6 8 9 7 7 9 9 9 9 9 9 9 9 11 11 11 12 15 17 17 15 12 12 16 20 21 19 15 14 12 9 8 6 2 3 7 9 6
12 12 12 11 10 9 8 7 6 5 3 3 4 7 8 7 6 7 7 7 9 10 9 7 5 6 8 8 8 9 9 9 8 10 10 10 11 11 11 11 12 14 15 16 17 16 13 13 17 20 21 19 15 14 14 11 8 6 3 3 5 8 6
12 13 12 10 9 9 8 7 6 4 2 2 1 3 7 9 7 6 5 5 7 9 9 8 8 9 10 9 10 10 10 10 10 12 13 13 14 14 14 13 13 14 15 16 18 18 15 15 16 17 18 19 18 15 14 14 10 5 2 3 4 7 7
12 12 11 9 8 9 7 6 5 3 1 0 2 1 5 8 7 6 5 5 7 8 8 9 10 10 9 10 11 11 12 13 13 15 16 16 16 15 15 14 12 12 13 16 20 19 17 16 15 15 14 13 18 20 17 15 12 8 5 2 2 7 8
12 11 10 8 9 9 8 7 6 3 2 2 2 2 3 5 6 4 5 8 10 9 9 10 9 8 8 9 11 13 16 16 16 16 16 16 16 14 15 13 9 9 10 14 19 19 18 17 15 18 16 9 12 18 18 16 14 10 7 4 2 4 7
12 11 10 9 9 10 10 9 8 5 4 3 3 4 5 6 6 4 8 11 11 9 9 9 8 8 9 11 13 16 18 19 18 17 15 15 15 14 13 12 9 9 10 12 17 18 17 18 15 17 19 13 9 10 12 15 16 12 8 7 5 1 3
12 11 10 10 10 11 10 9 9 6 5 4 4 4 5 6 5 7 11 12 11 10 9 8 7 7 9 12 15 17 18 19 19 18 16 15 15 14 14 13 11 12 12 13 16 17 17 18 15 15 19 19 14 11 9 11 13 12 10 8 6 2 1
13 11 10 10 11 11 10 9 8 6 5 4 4 5 6 6 5 8 13 14 12 11 10 9 7 5 9 12 14 16 17 17 17 17 16 16 16 15 15 15 14 15 16 16 17 18 17 16 13 11 15 19 19 16 14 11 8 9 10 7 6 4 2
13 11 10 10 11 11 9 7 6 6 5 5 6 7 7 6 6 9 13 14 12 12 11 10 8 7 9 11 12 14 16 17 17 17 16 15 15 16 17 18 18 16 16 17 17 15 14 13 11 10 9 15 21 21 17 12 8 8 10 8 7 5 3
14 12 11 11 11 10 9 7 6 5 5 7 8 8 8 8 8 10 12 12 11 11 11 10 10 10 10 10 11 13 16 17 17 16 15 15 15 16 18 20 20 17 16 16 16 14 12 12 13 12 8 11 20 21 15 10 8 8 9 8 8 6 5
14 13 12 11 11 10 8 6 5 5 6 8 9 8 8 9 10 11 12 11 10 10 10 10 11 12 11 12 13 16 17 17 16 15 15 15 16 16 18 20 20 18 16 16 15 14 12 11 12 13 10 11 16 18 14 10 8 8 9 8 8 8 6
15 14 13 11 11 10 8 5 5 6 8 9 9 10 9 10 10 10 10 11 11 10 10 12 13 13 14 15 17 18 18 16 15 14 15 15 15 15 17 18 19 18 17 16 16 16 14 12 11 11 11 11 13 13 12 10 8 8 8 7 7 8 7
16 15 13 12 12 10 7 6 6 8 10 10 11 11 10 9 9 8 7 9 11 12 11 13 15 16 16 17 17 18 18 17 16 16 16 15 14 14 14 16 17 18 18 18 17 17 15 13 11 12 12 11 10 9 9 10 9 8 8 7 7 8 9
17 16 13 12 13 10 7 6 7 9 11 12 12 12 11 9 7 6 5 6 9 11 10 12 16 16 16 17 16 16 17 17 15 15 16 15 15 14 13 14 15 17 18 17 16 16 16 14 13 14 14 13 11 9 10 10 11 10 9 8 8 9 10
13 12 11 12 12 9 6 7 8 10 12 13 12 11 10 9 8 7 6 5 6 7 7 10 15 16 16 16 15 15 16 17 16 15 15 15 15 15 15 14 15 16 17 17 17 17 17 17 16 16 16 15 13 12 12 12 12 12 11 9 9 10 10
9 9 10 12 11 7 7 8 9 11 12 13 11 9 7 8 9 8 7 6 6 5 5 7 13 16 17 16 16 16 16 17 17 17 16 16 16 16 16 16 16 16 16 17 19 19 19 19 18 19 19 18 17 16 15 14 14 13 12 11 11 11 11
11 11 10 10 9 7 7 9 11 12 13 12 11 9 6 6 7 8 9 8 8 7 6 6 8 13 15 17 17 18 18 18 18 18 18 18 17 17 16 16 16 15 15 16 18 20 21 21 20 20 21 21 19 18 18 17 16 15 14 13 13 13 13
14 13 11 10 9 8 7 8 10 12 12 11 9 9 9 7 5 7 9 9 10 10 8 7 7 8 11 14 16 18 19 19 19 20 20 20 20 18 17 17 16 15 14 15 16 18 19 20 21 21 21 22 21 20 19 18 18 18 18 17 16 16 16
16 15 15 14 12 10 9 8 9 10 12 12 9 8 11 11 7 7 9 9 9 11 10 9 9 9 9 11 13 16 18 19 20 21 22 22 22 21 20 19 18 17 16 15 15 15 16 18 20 21 21 22 22 21 21 20 20 20 20 20 20 19 19
13 14 15 14 13 12 11 11 10 10 11 12 9 8 11 13 11 10 11 11 11 12 13 12 13 14 13 13 13 14 15 17 19 21 23 24 24 23 23 22 21 20 19 19 18 17 17 18 19 20 21 21 22 23 23 22 22 22 22 21 21 21 20
13 13 12 12 12 12 11 11 12 12 12 12 11 9 11 13 14 13 14 14 14 15 15 15 16 17 18 19 18 17 17 18 19 20 21 23 24 24 24 24 24 23 23 22 22 21 21 21 21 21 21 21 22 24 24 25 25 24 24 23 22 22 21
15 13 11 11 11 10 9 8 9 10 10 11 11 12 12 14 16 17 18 18 18 19 19 19 18 18 18 20 21 22 22 22 22 22 22 22 23 24 25 25 26 27 26 26 26 25 25 25 25 24 23 23 24 25 26 26 26 26 25 24 24 23 22
15 14 13 12 11 10 9 8 8 8 8 9 10 11 12 13 14 16 18 20 22 23 23 22 22 22 21 21 21 23 25 26 26 26 26 26 26 26 27 27 28 28 28 29 30 29 29 28 27 27 27 27 27 27 28 28 27 25 25 24 24 23 22
13 13 12 12 11 10 9 9 9 10 9 9 9 10 10 10 10 11 12 14 17 20 22 23 24 24 25 24 23 23 26 28 30 30 30 30 30 30 30 31 32 31 30 31 31 30 30 29 27 28 29 29 27 28 28 28 26 23 23 24 23 23 22
8 7 8 8 8 9 8 8 9 10 10 10 10 10 10 10 10 10 10 10 12 14 16 18 21 23 25 26 26 27 28 29 31 32 33 33 33 33 33 34 36 35 32 30 30 31 32 30 28 29 30 28 26 26 26 25 24 22 21 22 23 23 22
4 3 4 5 5 6 7 7 8 9 9 10 11 10 11 11 11 11 12 12 13 14 15 16 17 19 22 24 27 29 30 30 30 30 32 33 34 35 35 36 38 36 33 32 32 32 33 32 31 31 29 26 25 26 25 24 24 23 22 21 22 21 19
6 6 6 7 7 8 9 10 11 11 12 12 13 13 14 14 14 14 14 14 15 16 17 17 16 17 19 21 23 26 29 30 30 30 31 32 33 35 36 37 38 38 38 36 34 33 33 32 32 32 30 28 28 28 26 25 24 23 22 20 19 17 16
9 10 11 11 12 13 14 15 15 16 16 17 17 18 19 20 20 20 19 19 19 18 19 19 19 18 18 19 21 23 25 27 29 29 29 31 32 34 34 35 35 36 37 36 33 32 32 32 32 34 34 32 32 30 26 23 23 21 20 18 16 15 15
12 13 14 15 15 16 18 18 19 20 21 21 22 22 23 24 25 25 25 24 24 24 23 23 23 22 21 21 22 24 26 27 27 27 27 29 31 32 33 32 32 32 34 34 33 33 33 34 35 36 33 30 27 25 22 22 23 21 18 16 16 15 14
14 15 15 16 17 18 19 20 21 22 23 24 25 25 26 26 27 28 28 28 28 29 28 28 28 27 26 25 24 25 28 29 28 28 29 30 31 32 32 30 29 30 32 33 35 36 37 37 38 38 35 29 22 19 19 21 21 19 17 16 15 13 11
16 17 17 17 18 19 20 21 21 22 23 24 25 25 26 27 27 29 30 30 30 30 30 31 31 30 30 30 28 27 28 28 28 28 30 31 31 31 30 29 28 29 30 31 34 36 38 39 39 39 36 28 21 20 20 20 19 17 16 15 13 11 10
17 18 18 18 19 19 19 20 20 20 21 21 22 23 24 24 25 27 28 29 30 29 29 30 31 31 31 31 31 30 29 28 27 28 30 31 31 30 29 28 27 27 28 29 30 31 33 35 36 33 28 24 23 22 22 20 19 18 16 14 12 11 11
Wind_Direction
152 144 138 132 129 124 123 125 124 126 130 131 135 143 147 147 148 151 153 152 157 162 165 178 183 183 187 187 189 196 207 211 211 216 215 212 211 210 210 206 204 186 178 179 176 166 156 149 154 158 143 126 118 119 127 102 83 71 67 70 67 57 53
162 148 139 136 131 126 123 120 119 124 131 136 137 143 152 157 160 162 159 150 148 156 160 169 177 182 186 189 196 202 206 205 205 209 211 217 220 219 213 205 190 170 175 176 174 174 161 150 152 152 144 139 135 137 141 104 82 60 52 50 36 24 28
159 151 147 149 149 146 133 123 121 121 128 138 138 136 140 152 166 171 170 160 151 153 155 164 179 183 182 181 186 190 189 192 199 201 202 211 219 217 211 203 191 173 174 174 173 177 168 155 155 153 150 154 148 146 151 118 88 63 48 39 25 14 8
155 156 157 160 161 155 139 129 141 147 141 146 145 142 141 148 173 179 174 166 163 167 164 164 183 192 187 180 179 181 181 185 193 196 196 202 211 211 207 205 202 188 183 182 180 181 176 165 159 153 149 152 149 149 157 150 120 79 56 34 23 22 18
152 159 159 157 155 151 146 146 171 198 185 162 158 162 162 166 186 187 182 171 168 182 182 170 185 205 201 193 186 188 191 188 185 187 187 189 202 208 205 203 203 199 193 191 187 183 187 189 173 154 146 146 146 147 154 154 143 114 61 28 23 25 27
155 158 156 154 156 159 166 174 190 207 194 176 182 192 194 195 189 182 181 176 171 179 186 188 206 212 202 198 193 193 196 189 178 175 176 179 190 195 190 185 187 190 190 192 191 185 188 196 178 156 146 148 152 153 157 158 154 154 136 43 30 31 42
157 153 150 151 157 166 175 181 187 190 179 174 192 201 198 196 190 178 175 180 183 187 195 208 214 196 188 189 188 190 193 189 175 165 166 171 172 169 167 168 172 180 183 188 192 187 180 176 169 160 151 151 160 164 168 174 177 177 160 102 52 44 61
156 149 146 144 150 164 171 174 180 189 179 143 135 193 186 184 188 187 183 184 185 192 204 209 195 181 180 180 181 186 187 182 171 160 160 164 162 158 157 157 161 171 180 188 191 189 184 170 162 161 154 154 167 176 180 185 191 200 172 119 91 74 80
158 152 150 148 154 165 170 173 184 198 208 199 350 298 182 182 191 194 191 181 172 175 182 182 176 173 174 175 175 175 170 166 163 159 160 161 158 153 151 152 157 168 181 191 192 193 191 179 169 168 163 160 168 174 183 189 190 194 186 153 104 99 95
162 159 160 159 161 171 178 185 192 199 213 241 287 279 211 195 200 196 178 172 170 169 164 160 159 160 161 163 165 164 161 160 161 162 163 162 160 154 153 158 165 169 177 185 187 191 190 184 179 175 175 178 171 170 178 190 198 200 188 183 166 113 104
169 166 170 171 170 176 182 189 196 199 209 225 248 251 228 212 214 199 172 169 168 168 162 150 146 151 156 157 160 162 162 164 166 166 166 165 164 163 165 171 167 156 162 172 178 186 190 187 184 182 183 190 191 187 185 187 197 202 191 189 195 155 111
176 173 180 185 182 182 184 189 196 198 203 218 227 212 194 196 199 175 167 168 166 165 165 159 154 157 161 161 163 165 167 171 173 170 170 171 172 173 176 178 168 150 149 157 162 168 180 187 189 193 196 197 202 218 212 192 195 198 195 200 204 212 170
181 179 187 190 188 189 189 190 195 197 197 196 178 161 158 168 169 162 168 174 173 172 175 176 177 179 173 167 167 170 173 178 180 177 176 177 178 181 181 178 170 157 150 149 150 153 164 175 181 185 196 201 205 212 211 207 209 199 191 204 222 228 195
183 184 191 195 196 194 191 193 197 194 182 163 149 144 144 151 153 156 168 177 181 186 190 191 194 194 181 170 168 173 176 180 185 183 179 180 181 184 183 175 169 164 162 161 161 163 169 179 187 185 188 201 205 207 211 216 219 203 193 201 220 219 169
188 190 192 196 200 194 188 190 194 186 165 150 144 138 134 140 145 151 164 174 181 186 193 197 194 192 187 176 169 171 175 178 182 180 175 172 172 176 179 177 172 169 172 179 182 188 194 198 203 204 197 199 201 203 208 212 211 205 200 201 208 204 170
197 195 194 199 198 188 178 178 179 168 156 149 139 129 125 128 132 143 161 173 177 181 188 189 184 182 183 176 167 166 170 175 175 171 169 165 161 165 173 179 180 179 182 191 197 199 199 199 204 205 197 192 195 197 202 210 217 210 198 193 202 206 195
201 196 196 199 189 176 167 169 166 153 152 149 136 126 126 124 120 125 148 167 174 176 176 172 168 166 168 167 163 161 164 169 171 168 166 164 158 158 166 176 182 185 190 198 200 198 195 196 200 198 190 188 195 201 207 212 220 220 208 198 192 200 206
199 196 198 194 181 174 170 171 165 155 154 152 140 135 139 139 126 116 129 155 166 170 168 164 161 159 161 163 163 163 165 169 172 170 169 169 165 160 162 171 177 181 187 194 197 201 202 201 199 195 194 195 200 214 217 207 205 216 220 208 187 187 202
194 193 195 188 178 179 182 176 165 155 155 154 146 143 148 155 152 139 137 148 159 167 168 165 166 167 167 168 170 171 173 176 178 177 176 176 177 175 174 177 181 184 190 197 203 207 207 204 201 199 199 201 206 220 221 206 201 209 217 217 207 201 208
188 187 188 185 182 184 181 173 161 152 154 155 154 152 154 164 171 165 167 172 167 172 173 170 177 182 180 178 180 182 184 188 191 190 188 187 189 191 192 193 197 198 201 207 212 214 211 208 208 206 206 209 210 211 213 210 208 208 211 218 219 217 221
178 181 182 182 181 175 164 162 155 150 154 159 162 163 158 170 181 179 187 198 192 195 200 185 186 192 194 191 191 194 198 201 204 204 203 204 206 207 207 208 211 213 214 215 216 217 218 218 219 217 215 218 216 210 212 217 216 212 212 216 217 218 224
181 188 188 187 181 168 158 159 159 161 165 168 172 178 178 181 189 191 198 209 212 221 234 227 207 204 207 206 204 206 208 210 214 217 218 221 223 224 225 225 225 224 225 225 224 223 225 227 229 227 223 223 223 219 218 221 221 219 219 221 218 216 220
187 189 187 189 190 188 178 169 172 177 181 183 185 193 200 202 202 203 206 213 221 231 239 241 235 226 223 224 222 220 220 220 223 226 229 232 235 237 241 242 241 238 237 236 233 231 230 230 231 230 226 226 228 228 226 226 225 226 228 228 224 221 225
191 195 193 191 191 195 196 192 195 199 199 201 201 199 201 200 200 205 212 222 231 238 243 243 245 248 244 240 238 235 233 231 229 231 234 237 240 244 247 248 249 247 246 245 244 241 237 232 230 229 229 229 230 232 233 233 232 231 231 231 230 232 238
187 196 200 197 193 197 203 207 210 210 209 210 210 204 201 203 205 206 213 225 233 240 247 250 250 251 251 252 252 252 250 245 240 237 237 237 240 243 246 248 249 248 249 250 250 249 246 240 234 231 231 232 234 235 237 240 241 240 238 236 237 240 244
165 175 184 188 189 194 198 201 205 207 209 212 215 213 206 207 211 211 214 222 228 233 239 245 249 251 252 253 253 253 255 256 254 250 246 244 243 244 247 249 249 250 251 250 250 251 252 249 244 240 238 238 239 239 239 241 244 245 244 244 246 248 250
146 150 159 168 174 175 173 177 187 198 204 209 215 219 218 219 221 221 223 225 228 233 235 238 243 247 250 252 253 252 253 254 255 257 257 255 252 250 251 251 250 251 251 249 249 251 252 250 248 247 246 247 247 247 246 245 245 246 246 248 251 253 254
132 136 141 150 158 157 155 158 164 176 185 190 200 210 219 226 229 232 235 234 233 236 237 239 242 245 247 250 251 253 253 253 253 254 255 256 256 255 255 255 254 253 251 250 248 246 247 249 248 249 250 251 252 252 251 250 249 248 248 249 251 251 252
128 133 139 146 151 152 153 156 163 175 185 189 196 203 208 216 221 227 236 239 240 241 242 244 246 247 249 251 252 253 251 250 250 250 250 253 256 258 259 260 260 256 252 253 251 249 250 252 253 254 253 250 251 252 252 251 250 249 248 247 246 245 247
136 138 150 158 160 160 162 166 173 181 187 190 197 205 212 219 223 225 230 236 240 244 246 248 249 249 249 251 254 255 254 251 248 246 246 249 252 256 260 263 262 256 250 253 258 260 257 253 254 257 254 248 248 251 252 250 250 250 248 242 239 239 240
193 207 206 204 207 208 207 211 214 212 211 211 212 217 224 228 231 237 242 243 244 248 249 251 252 251 248 248 250 254 257 260 257 251 249 249 252 256 260 263 263 260 257 259 263 262 257 250 249 252 252 250 249 249 253 256 254 251 246 237 232 233 233
249 255 256 252 254 254 251 250 251 251 250 248 246 247 248 248 246 246 249 250 252 253 253 252 253 256 255 252 252 253 256 260 262 261 258 257 257 258 260 262 263 263 263 264 263 260 255 249 246 244 244 249 253 253 257 263 258 248 241 232 226 226 227
277 275 273 271 271 270 269 268 267 266 265 263 261 259 260 260 259 257 255 254 254 255 257 257 255 257 260 259 257 258 258 259 261 262 262 261 260 260 261 261 262 262 262 262 262 259 253 246 243 243 246 253 261 262 261 257 247 236 230 224 219 219 222
292 288 283 280 278 276 276 276 275 275 274 272 271 268 266 264 263 261 259 257 255 254 256 257 255 255 257 259 261 263 264 264 265 265 266 266 265 263 261 260 260 260 261 262 261 257 251 245 245 250 257 262 265 264 255 241 231 222 215 212 211 211 215
301 298 294 290 287 285 284 283 282 281 280 279 279 277 274 271 268 266 263 260 259 257 255 256 256 255 253 254 257 263 267 269 270 271 271 270 269 266 262 259 258 257 258 259 258 254 252 249 249 255 264 266 257 244 235 228 221 211 203 204 207 208 218
301 298 295 292 290 288 287 286 286 286 284 282 281 280 278 275 272 270 267 264 262 261 258 256 255 255 254 253 252 256 262 266 270 272 271 269 268 266 262 261 260 259 257 257 257 256 255 253 254 257 260 254 233 218 220 220 213 205 202 205 210 218 234
305 301 297 294 292 290 289 288 287 287 286 284 282 281 280 279 277 274 272 269 266 265 264 261 257 255 255 255 252 250 251 255 261 268 270 267 264 263 262 261 261 261 260 259 259 259 258 256 255 251 243 228 214 212 218 216 208 204 207 212 221 233 245